| time (UTC) | temp C | wind direction | speed KPH | gust KPH | rain 1hr cm | rain 24hr cm | rain mn cm | humidity % | barometer mb |
| 20260508063005 | 4 | 186 | 0.0 | 0.0 | 0.00 | 0.23 | 0.00 | 88 | 1023.5 |
| 20260508062005 | 4 | 187 | 0.0 | 0.0 | 0.00 | 0.23 | 0.00 | 91 | 1023.5 |
| 20260508061006 | 3 | 195 | 0.0 | 0.0 | 0.00 | 0.23 | 0.00 | 90 | 1023.4 |
| 20260508055005 | 3 | 184 | 0.0 | 0.0 | 0.00 | 0.23 | 0.00 | 91 | 1023.5 |
| 20260508054005 | 3 | 170 | 0.0 | 0.0 | 0.00 | 0.23 | 0.00 | 91 | 1023.4 |
| 20260508053005 | 3 | 109 | 0.0 | 0.0 | 0.00 | 0.23 | 0.00 | 90 | 1023.3 |
| 20260508052005 | 3 | 107 | 0.0 | 0.0 | 0.00 | 0.23 | 0.00 | 90 | 1023.3 |
| 20260508051005 | 3 | 107 | 0.0 | 0.0 | 0.00 | 0.23 | 0.00 | 91 | 1023.3 |
| 20260508050005 | 3 | 107 | 0.0 | 0.0 | 0.00 | 0.23 | 0.00 | 91 | 1023.3 |
| 20260508045005 | 3 | 107 | 0.0 | 0.0 | 0.00 | 0.23 | 0.00 | 91 | 1023.2 |
| 20260508044005 | 3 | 107 | 0.0 | 0.0 | 0.00 | 0.23 | 0.00 | 91 | 1023.2 |
| 20260508043005 | 3 | 107 | 0.0 | 0.0 | 0.00 | 0.23 | 0.00 | 91 | 1023.2 |
| 20260508042005 | 3 | 107 | 0.0 | 0.0 | 0.00 | 0.23 | 0.00 | 92 | 1023.1 |
| 20260508041005 | 3 | 107 | 0.0 | 0.0 | 0.00 | 0.23 | 0.00 | 92 | 1023.0 |
| 20260508040005 | 3 | 107 | 0.0 | 0.0 | 0.00 | 0.23 | 0.00 | 92 | 1022.9 |
| 20260508035005 | 3 | 107 | 0.0 | 0.0 | 0.00 | 0.23 | 0.00 | 92 | 1022.9 |
| 20260508034006 | 3 | 107 | 0.0 | 0.0 | 0.00 | 0.23 | 0.00 | 92 | 1022.9 |
| 20260508033005 | 2 | 107 | 0.0 | 0.0 | 0.00 | 0.23 | 0.00 | 92 | 1022.9 |
| 20260508032005 | 2 | 107 | 0.0 | 0.0 | 0.00 | 0.23 | 0.00 | 92 | 1022.8 |
| 20260508031005 | 2 | 107 | 0.0 | 0.0 | 0.00 | 0.23 | 0.00 | 93 | 1022.9 |
| 20260508030005 | 2 | 107 | 0.0 | 0.0 | 0.00 | 0.23 | 0.00 | 93 | 1022.8 |
| 20260508024005 | 2 | 107 | 0.0 | 0.0 | 0.00 | 0.23 | 0.00 | 92 | 1022.6 |
| 20260508022005 | 2 | 107 | 0.0 | 0.0 | 0.00 | 0.23 | 0.00 | 92 | 1022.5 |
| 20260508021005 | 2 | 107 | 0.0 | 0.0 | 0.00 | 0.23 | 0.00 | 92 | 1022.4 |
| 20260508015004 | 2 | 107 | 0.0 | 0.0 | 0.00 | 0.23 | 0.00 | 92 | 1022.3 |
| 20260508014005 | 2 | 107 | 0.0 | 0.0 | 0.00 | 0.23 | 0.00 | 92 | 1022.3 |
| 20260508013006 | 2 | 107 | 0.0 | 0.0 | 0.00 | 0.23 | 0.00 | 92 | 1022.2 |
| 20260508012005 | 2 | 107 | 0.0 | 0.0 | 0.00 | 0.23 | 0.00 | 92 | 1022.1 |
| 20260508011005 | 2 | 107 | 0.0 | 0.0 | 0.00 | 0.23 | 0.00 | 92 | 1022.0 |
| 20260508010005 | 2 | 107 | 0.0 | 0.0 | 0.00 | 0.23 | 0.00 | 92 | 1022.0 |
| 20260508005005 | 2 | 107 | 0.0 | 0.0 | 0.00 | 0.23 | 0.00 | 92 | 1021.9 |
| 20260508004005 | 2 | 107 | 0.0 | 0.0 | 0.00 | 0.23 | 0.00 | 92 | 1021.8 |
| 20260508003006 | 2 | 107 | 0.0 | 0.0 | 0.00 | 0.23 | 0.00 | 91 | 1021.8 |
| 20260508002005 | 2 | 107 | 0.0 | 0.0 | 0.00 | 0.23 | 0.00 | 92 | 1021.7 |
| 20260508001005 | 2 | 107 | 0.0 | 0.0 | 0.00 | 0.23 | 0.00 | 91 | 1021.7 |
| 20260508000005 | 2 | 107 | 0.0 | 0.0 | 0.00 | 0.23 | 0.00 | 91 | 1021.6 |
| 20260507235005 | 2 | 107 | 0.0 | 0.0 | 0.00 | 0.23 | 0.00 | 91 | 1021.6 |
| 20260507234005 | 2 | 107 | 0.0 | 0.0 | 0.00 | 0.23 | 0.00 | 92 | 1021.2 |
| 20260507233005 | 2 | 107 | 0.0 | 0.0 | 0.00 | 0.23 | 0.00 | 92 | 1021.2 |
| 20260507232005 | 2 | 107 | 0.0 | 0.0 | 0.00 | 0.23 | 0.00 | 91 | 1021.2 |
| 20260507231005 | 2 | 107 | 0.0 | 0.0 | 0.00 | 0.23 | 0.00 | 91 | 1021.2 |
| 20260507230005 | 2 | 107 | 0.0 | 0.0 | 0.00 | 0.23 | 0.00 | 91 | 1021.3 |
| 20260507225005 | 2 | 107 | 0.0 | 0.0 | 0.00 | 0.23 | 0.00 | 91 | 1021.1 |
| 20260507224005 | 2 | 107 | 0.0 | 0.0 | 0.00 | 0.23 | 0.00 | 91 | 1021.0 |
| 20260507223005 | 3 | 107 | 0.0 | 0.0 | 0.00 | 0.23 | 0.00 | 91 | 1020.9 |
| 20260507222005 | 3 | 107 | 0.0 | 0.0 | 0.00 | 0.23 | 0.00 | 91 | 1020.8 |
| 20260507221005 | 3 | 107 | 0.0 | 0.0 | 0.00 | 0.23 | 0.00 | 91 | 1020.5 |
| 20260507220004 | 3 | 107 | 0.0 | 0.0 | 0.00 | 0.23 | 0.00 | 91 | 1020.5 |
| 20260507215004 | 3 | 107 | 0.0 | 0.0 | 0.00 | 0.23 | 0.23 | 91 | 1020.5 |
| 20260507214005 | 3 | 107 | 0.0 | 0.0 | 0.00 | 0.23 | 0.23 | 91 | 1020.5 |
| 20260507213005 | 3 | 107 | 0.0 | 0.0 | 0.00 | 0.23 | 0.23 | 91 | 1020.4 |
| 20260507212005 | 3 | 107 | 0.0 | 0.0 | 0.00 | 0.23 | 0.23 | 91 | 1020.3 |
| 20260507211004 | 3 | 107 | 0.0 | 0.0 | 0.00 | 0.23 | 0.23 | 91 | 1020.3 |
| 20260507210005 | 3 | 107 | 0.0 | 0.0 | 0.00 | 0.23 | 0.23 | 91 | 1020.3 |
| 20260507205004 | 3 | 107 | 0.0 | 0.0 | 0.00 | 0.23 | 0.23 | 91 | 1020.1 |
| 20260507204004 | 3 | 107 | 0.0 | 0.0 | 0.03 | 0.23 | 0.23 | 91 | 1020.1 |
| 20260507202005 | 3 | 115 | 0.0 | 0.0 | 0.03 | 0.23 | 0.23 | 91 | 1019.7 |
| 20260507201005 | 3 | 115 | 0.0 | 0.0 | 0.03 | 0.23 | 0.23 | 91 | 1019.6 |
| 20260507200005 | 3 | 170 | 0.0 | 0.0 | 0.03 | 0.23 | 0.23 | 91 | 1019.5 |
| 20260507195005 | 3 | 171 | 0.0 | 0.0 | 0.05 | 0.23 | 0.23 | 90 | 1019.3 |
| 20260507194005 | 3 | 187 | 0.0 | 0.0 | 0.03 | 0.23 | 0.20 | 90 | 1019.2 |
| 20260507193004 | 3 | 174 | 0.0 | 0.0 | 0.03 | 0.23 | 0.20 | 90 | 1019.2 |
| 20260507191005 | 4 | 194 | 0.0 | 0.0 | 0.03 | 0.23 | 0.20 | 90 | 1019.0 |
| 20260507190006 | 4 | 121 | 0.0 | 0.0 | 0.03 | 0.23 | 0.20 | 90 | 1018.9 |
| 20260507185004 | 4 | 119 | 0.0 | 0.0 | 0.03 | 0.20 | 0.18 | 89 | 1018.9 |
| 20260507184005 | 4 | 119 | 0.0 | 0.0 | 0.03 | 0.20 | 0.18 | 89 | 1018.8 |
| 20260507183005 | 4 | 119 | 0.0 | 0.0 | 0.03 | 0.20 | 0.18 | 90 | 1018.7 |
| 20260507182005 | 4 | 232 | 0.0 | 0.0 | 0.03 | 0.20 | 0.18 | 91 | 1018.5 |
| 20260507180006 | 3 | 238 | 0.0 | 0.0 | 0.03 | 0.20 | 0.18 | 91 | 1018.5 |
| 20260507174005 | 3 | 300 | 0.0 | 0.0 | 0.03 | 0.18 | 0.15 | 90 | 1018.3 |
| 20260507173005 | 4 | 270 | 0.0 | 0.0 | 0.05 | 0.18 | 0.15 | 89 | 1018.2 |
| 20260507171006 | 5 | 138 | 0.0 | 0.0 | 0.05 | 0.20 | 0.15 | 89 | 1018.2 |
| 20260507164005 | 5 | 120 | 0.0 | 0.0 | 0.03 | 0.18 | 0.15 | 88 | 1018.0 |
| 20260507163005 | 5 | 120 | 0.0 | 0.0 | 0.00 | 0.15 | 0.13 | 88 | 1017.8 |
| 20260507162005 | 5 | 120 | 0.0 | 0.0 | 0.00 | 0.15 | 0.13 | 87 | 1017.6 |
| 20260507161006 | 5 | 120 | 0.0 | 0.0 | 0.05 | 0.23 | 0.13 | 88 | 1017.7 |
| 20260507155005 | 5 | 223 | 0.0 | 0.0 | 0.05 | 0.23 | 0.13 | 87 | 1017.6 |
| 20260507154008 | 5 | 223 | 0.0 | 0.0 | 0.05 | 0.23 | 0.13 | 87 | 1017.5 |
| 20260507153005 | 5 | 223 | 0.0 | 0.0 | 0.05 | 0.23 | 0.13 | 88 | 1017.5 |
| 20260507152005 | 5 | 223 | 0.0 | 0.0 | 0.05 | 0.23 | 0.13 | 86 | 1017.5 |
| 20260507151005 | 6 | 199 | 0.0 | 0.0 | 0.03 | 0.20 | 0.08 | 85 | 1017.5 |
| 20260507150006 | 6 | 144 | 0.0 | 0.0 | 0.03 | 0.20 | 0.08 | 86 | 1017.3 |
| 20260507145005 | 6 | 202 | 0.0 | 0.0 | 0.03 | 0.20 | 0.08 | 85 | 1017.2 |
| 20260507144005 | 6 | 205 | 0.0 | 0.0 | 0.03 | 0.20 | 0.08 | 86 | 1017.3 |
| 20260507142005 | 6 | 212 | 0.0 | 0.0 | 0.03 | 0.20 | 0.08 | 83 | 1017.2 |
| 20260507141007 | 6 | 209 | 0.0 | 0.0 | 0.00 | 0.18 | 0.05 | 82 | 1017.2 |
| 20260507140006 | 6 | 173 | 0.0 | 0.0 | 0.00 | 0.18 | 0.05 | 80 | 1017.0 |
| 20260507135005 | 6 | 167 | 0.0 | 0.0 | 0.00 | 0.18 | 0.05 | 84 | 1016.9 |
| 20260507133006 | 6 | 167 | 0.0 | 0.0 | 0.00 | 0.18 | 0.05 | 83 | 1016.8 |
| 20260507132005 | 6 | 167 | 0.0 | 0.0 | 0.00 | 0.18 | 0.05 | 83 | 1016.8 |
| 20260507131005 | 6 | 167 | 0.0 | 0.0 | 0.00 | 0.18 | 0.05 | 85 | 1016.9 |
| 20260507130005 | 6 | 168 | 0.0 | 0.0 | 0.00 | 0.20 | 0.05 | 85 | 1016.8 |
| 20260507125006 | 5 | 169 | 0.0 | 0.0 | 0.00 | 0.20 | 0.05 | 85 | 1016.8 |
| 20260507124006 | 5 | 161 | 0.0 | 0.0 | 0.00 | 0.23 | 0.05 | 84 | 1016.7 |
| 20260507123006 | 5 | 171 | 0.0 | 0.0 | 0.00 | 0.23 | 0.05 | 85 | 1016.8 |
| 20260507121005 | 5 | 167 | 0.0 | 0.0 | 0.00 | 0.23 | 0.05 | 86 | 1016.7 |
| 20260507120006 | 5 | 168 | 0.0 | 0.0 | 0.00 | 0.23 | 0.05 | 87 | 1016.7 |
| 20260507115006 | 5 | 159 | 0.0 | 0.0 | 0.00 | 0.23 | 0.05 | 87 | 1016.6 |
| 20260507114005 | 5 | 168 | 0.0 | 0.0 | 0.00 | 0.23 | 0.05 | 87 | 1016.6 |
| 20260507113006 | 5 | 106 | 0.0 | 0.0 | 0.00 | 0.23 | 0.05 | 87 | 1016.6 |
| 20260507112006 | 5 | 121 | 0.0 | 0.0 | 0.05 | 0.23 | 0.05 | 89 | 1016.4 |
| 20260507111006 | 5 | 184 | 0.0 | 0.0 | 0.05 | 0.25 | 0.05 | 89 | 1016.3 |
| 20260507110006 | 5 | 250 | 0.0 | 0.0 | 0.05 | 0.25 | 0.05 | 89 | 1016.3 |
| 20260507105005 | 5 | 224 | 0.0 | 0.0 | 0.05 | 0.25 | 0.05 | 88 | 1016.3 |
| 20260507103005 | 5 | 261 | 0.0 | 0.0 | 0.05 | 0.28 | 0.05 | 83 | 1016.2 |
| 20260507102007 | 6 | 325 | 0.0 | 0.0 | 0.00 | 0.23 | 0.00 | 80 | 1015.9 |
| 20260507101006 | 6 | 221 | 0.0 | 0.0 | 0.00 | 0.23 | 0.00 | 81 | 1015.5 |
| 20260507100005 | 6 | 144 | 0.0 | 0.0 | 0.00 | 0.23 | 0.00 | 77 | 1015.4 |
| 20260507095005 | 6 | 145 | 0.0 | 0.0 | 0.00 | 0.25 | 0.00 | 78 | 1015.3 |
| 20260507094006 | 6 | 145 | 0.0 | 0.0 | 0.00 | 0.28 | 0.00 | 78 | 1015.3 |
| 20260507092006 | 6 | 152 | 0.0 | 0.0 | 0.00 | 0.30 | 0.00 | 78 | 1015.3 |
| 20260507091005 | 5 | 155 | 0.0 | 0.0 | 0.00 | 0.30 | 0.00 | 80 | 1015.3 |
| 20260507090006 | 5 | 119 | 0.0 | 0.0 | 0.00 | 0.30 | 0.00 | 79 | 1015.1 |
| 20260507085005 | 5 | 119 | 0.0 | 0.0 | 0.00 | 0.30 | 0.00 | 79 | 1015.1 |
| 20260507084006 | 5 | 149 | 0.0 | 0.0 | 0.00 | 0.30 | 0.00 | 80 | 1015.0 |
| 20260507083005 | 5 | 150 | 0.0 | 0.0 | 0.00 | 0.30 | 0.00 | 81 | 1015.0 |
| 20260507081006 | 5 | 151 | 0.0 | 0.0 | 0.00 | 0.30 | 0.00 | 84 | 1015.0 |
| 20260507080005 | 5 | 144 | 0.0 | 0.0 | 0.00 | 0.30 | 0.00 | 85 | 1014.9 |
| 20260507074006 | 4 | 119 | 0.0 | 0.0 | 0.00 | 0.30 | 0.00 | 87 | 1014.8 |
| 20260507073005 | 4 | 110 | 0.0 | 0.0 | 0.00 | 0.30 | 0.00 | 88 | 1014.7 |
| 20260507072006 | 4 | 115 | 0.0 | 0.0 | 0.00 | 0.30 | 0.00 | 89 | 1014.7 |
| 20260507071005 | 4 | 119 | 0.0 | 0.0 | 0.00 | 0.30 | 0.00 | 90 | 1014.7 |
| 20260507070009 | 4 | 162 | 0.0 | 0.0 | 0.00 | 0.30 | 0.00 | 89 | 1014.6 |
| 20260507065006 | 4 | 163 | 0.0 | 0.0 | 0.00 | 0.30 | 0.00 | 90 | 1014.5 |
| 20260507064006 | 4 | 163 | 0.0 | 0.0 | 0.00 | 0.30 | 0.00 | 89 | 1014.4 |